Location: Asheville, NC
(35.6000°N, 82.5500°W)
Time: 22:50:53
(UTC-04:00)

AO-7 - Pass Details

Date: 05 January 2018
Orbit: 1439 x 1459 km, 101.7° (Epoch: 27 May)

Event Time Altitude Azimuth Distance (km) Brightness Sun altitude
Rises 06:12:18 0° 1° (N) 4,570 ? -17.4°
Reaches altitude 10° 06:16:13 10° 344° (NNW) 3,588 ? -16.7°
Enters shadow 06:20:57 18° 309° (NW) 3,026 ? -15.8°
